Location: Bishopstone
(51.0167°N, 1.9000°W)
Time: 01:23:36
(UTC+00:00)

Cosmos 1943 - Pass Details

Date: 16 September 2019
Orbit: 833 x 851 km, 71.0° (Epoch: 15 October)

Event Time Altitude Azimuth Distance (km) Brightness Sun altitude
Rises 21:43:29 0° 331° (NNW) 3,429 7.5 -28.9°
Reaches altitude 10° 21:46:01 10° 336° (NNW) 2,488 6.5 -29.1°
Enters shadow 21:51:05 51° 33° (NNE) 1,058 3.7 -29.6°
